Chatham, MA

3:22 AM EST on December 06, 2019 (GMT -0500)
Chatham Municipal

Weather History for KCQX - October, 2019

Change the Weather History Date:

Sunday, October 6, 2019

  Actual Average Record
Temperature  
Mean Temperature 53 °F -  
Max Temperature 64 °F 61 °F 79 °F (2007)
Min Temperature 42 °F 47 °F 35 °F (1984)
Degree Days  
Heating Degree Days 12    
Growing Degree Days 3 (Base 50)    
Moisture  
Dew Point 50 °F    
Average Humidity 80    
Maximum Humidity 93    
Minimum Humidity 67    
Precipitation  
Precipitation 0.00 in - - ()
Sea Level Pressure  
Sea Level Pressure 30.39 in    
Wind  
Wind Speed 4 mph (South)    
Max Wind Speed 14 mph    
Max Gust Speed 26 mph    
Visibility 10 miles    
Events      
Averages and records for this station are not official NWS values.
T = Trace of Precipitation, MM = Missing Value Source: NWS Daily Summary

Daily Weather History Graph

Daily Weather History Graph

Search for Another Location

Airport or City:

Astronomy

Oct. 06, 2019 Rise Set
Actual Time 6:41 AM EDT 6:13 PM EDT
Civil Twilight 6:14 AM EDT 6:41 PM EDT
Nautical Twilight 5:41 AM EDT 7:13 PM EDT
Astronomical Twilight 5:09 AM EDT 7:45 PM EDT
Moon 2:56 PM EDT No Moon Set
Length of Visible Light 12h 27m
Length of Day
11h 31m
First Quarter, 59% of the Moon is Illuminated
Oct 6
First Quarter
Oct 13
Full
Oct 21
Last Quarter
Oct 27
New
Nov 4
First Quarter

Hourly Weather History & Observations

Time (EDT) Temp. Windchill Dew Point Humidity Pressure Visibility Wind Dir Wind Speed Gust Speed Precip Events Conditions
12:52 AM 42.1 °F - 39.0 °F 89% 30.43 in 10.0 mi Calm Calm - N/A   Clear
1:52 AM 43.0 °F - 41.0 °F 93% 30.44 in 10.0 mi Calm Calm - N/A   Clear
2:52 AM 42.1 °F 40.2 °F 39.9 °F 92% 30.44 in 10.0 mi SSW 3.5 mph - N/A   Clear
3:52 AM 45.0 °F - 41.0 °F 86% 30.44 in 10.0 mi Calm Calm - N/A   Clear
4:52 AM 46.0 °F 43.9 °F 42.1 °F 86% 30.44 in 10.0 mi SW 4.6 mph - N/A   Scattered Clouds
5:52 AM 48.9 °F - 43.0 °F 80% 30.44 in 10.0 mi SW 3.5 mph - N/A   Mostly Cloudy
6:52 AM 48.0 °F - 42.1 °F 80% 30.45 in 10.0 mi Calm Calm - N/A   Partly Cloudy
7:52 AM 54.0 °F - 46.0 °F 75% 30.44 in 10.0 mi Calm Calm - N/A   Clear
8:52 AM 57.0 °F - 46.9 °F 69% 30.45 in 10.0 mi Variable 5.8 mph - N/A   Clear
9:52 AM 57.0 °F - 46.9 °F 69% 30.44 in 10.0 mi SSE 8.1 mph - N/A   Mostly Cloudy
10:52 AM 57.9 °F - 48.0 °F 70% 30.43 in 10.0 mi SSE 8.1 mph 19.6 mph N/A   Mostly Cloudy
11:52 AM 60.1 °F - 48.9 °F 67% 30.42 in 10.0 mi SSE 11.5 mph 20.7 mph N/A   Clear
12:52 PM 61.0 °F - 51.1 °F 70% 30.40 in 10.0 mi South 13.8 mph 24.2 mph N/A   Clear
1:52 PM 61.0 °F - 52.0 °F 72% 30.39 in 10.0 mi South 8.1 mph 16.1 mph N/A   Clear
2:52 PM 60.1 °F - 53.1 °F 78% 30.37 in 10.0 mi South 10.4 mph 19.6 mph N/A   Overcast
3:52 PM 61.0 °F - 54.0 °F 78% 30.36 in 10.0 mi SSE 11.5 mph 17.3 mph N/A   Overcast
4:52 PM 61.0 °F - 55.9 °F 83% 30.34 in 10.0 mi South 8.1 mph - N/A   Partly Cloudy
5:52 PM 62.1 °F - 57.0 °F 84% 30.32 in 10.0 mi Variable 6.9 mph - N/A   Mostly Cloudy
6:52 PM 62.1 °F - 57.0 °F 84% 30.32 in 10.0 mi SSW 8.1 mph - N/A   Mostly Cloudy
7:52 PM 63.0 °F - 57.9 °F 84% 30.32 in 10.0 mi Variable 4.6 mph - N/A   Overcast
8:52 PM 63.0 °F - 57.9 °F 84% 30.32 in 10.0 mi Variable 5.8 mph - N/A   Overcast
9:52 PM 63.0 °F - 59.0 °F 87% 30.32 in 10.0 mi Variable 6.9 mph - N/A   Overcast
10:52 PM 64.0 °F - 59.0 °F 84% 30.31 in 10.0 mi SSW 10.4 mph 21.9 mph N/A   Overcast
11:52 PM 64.9 °F - 59.0 °F 81% 30.30 in 10.0 mi SSW 11.5 mph 26.5 mph N/A   Overcast